Regional Weather Roundup
Issued by NWS Northern Indiana

Home | Current Version | Previous Version | Graphics & Text | Print | Product List | Glossary On
Versions: 1 2 3 4 5 6 7 8 9 10 11 12 13 14 15 16 17 18 19 20 21 22 23 24 25 26 27 28 29 30 31 32 33 34 35 36 37 38 39 40 41 42 43 44 45 46 47 48 49 50
881
ASUS43 KIWX 050500
RWRIWX

KIWX WEATHER ROUNDUP
NATIONAL WEATHER SERVICE NORTHERN INDIANA
1200 AM EST MON DEC 05 2016

NOTE: "FAIR" INDICATES FEW OR NO CLOUDS BELOW 12,000 FEET WITH NO
SIGNIFICANT WEATHER AND/OR OBSTRUCTIONS TO VISIBILITY.

* THESE STATIONS ARE NOT UNDER NWS QUALITY CONTROL. THEY ALSO MAY NOT
  REPORT WEATHER SUCH AS PRECIPITATION OR FOG.

INZ001>027-050600-
NORTHERN INDIANA

CITY           SKY/WX    TMP DP  RH WIND       PRES   REMARKS
SOUTH BEND     CLOUDY    32  32 100 W10       29.89R WCI  24
GOSHEN         CLOUDY    33  30  88 W13       29.88R WCI  24
MONTICELLO*    CLOUDY    33  29  88 W9        29.96R WCI  25
ANGOLA*        CLOUDY    34  34 100 W12       29.83R WCI  25
FORT WAYNE     CLOUDY    34  31  88 W15       29.89R WCI  24
PERU/GRISSOM   CLOUDY    33  33  99 W15       29.92R WCI  23

$$
INZ028>050-050600-
CENTRAL INDIANA

CITY           SKY/WX    TMP DP  RH WIND       PRES   REMARKS
LAFAYETTE      CLOUDY    33  33 100 W7        29.98R WCI  27
KOKOMO*        CLOUDY    33  32  96 W16       29.95R WCI  23
MUNCIE*        CLOUDY    37  32  82 W16G25    29.92R
INDIANAPOLIS   CLOUDY    36  32  85 W13       29.98R

$$
MIZ043>046-050>051-056>058-064>065-071>073-077>080-050600-
SOUTHWEST LOWER MICHIGAN

CITY           SKY/WX    TMP DP  RH WIND       PRES   REMARKS
BATTLE CREEK   CLOUDY    33  32  96 W6        29.83F WCI  28
BENTON HARBOR  CLOUDY    37  31  78 W12       29.87R
COLDWATER*     CLOUDY    33  33 100 W7        29.83S FOG     WCI  27
HILLSDALE*     MIX PCPN  32  32 100 W6        29.80R WCI  26
HOLLAND        CLOUDY    33  32  96 S5        29.84S WCI  29
GRAND RAPIDS   MOCLDY    31  29  92 S5        29.83F FOG     WCI  26
KALAMAZOO      CLOUDY    33  30  88 W5        29.85R WCI  29
STURGIS*       CLOUDY    33  32  95 W6        29.84S FOG     WCI  27
THREE RIVERS*  CLOUDY    34  33  98 W5        29.86R FOG     WCI  30

$$
OHZ001>008-015>018-024>025-050600-
NORTHWEST OHIO

CITY           SKY/WX    TMP DP  RH WIND       PRES   REMARKS
DEFIANCE       CLOUDY    35  32  88 SW8       29.85R FOG     WCI  29
FINDLAY        CLOUDY    36  32  85 SW12      29.83R FOG
TOLEDO EXPRESS CLOUDY    33  33 100 SW9       29.82S FOG     WCI  25
TOLEDO METCALF CLOUDY    34  34 100 SW7       29.83R FOG     WCI  28
LIMA           CLOUDY    36  36 100 W20G28    29.85R

$$
AND FOR LAKE MICHIGAN COASTAL AND OPEN LAKE BUOY OBSERVATIONS

STATION/POSITION TEMP    WIND        PRES    VSBY  WAVE
                 AIR SEA DIR/SP/G                  HT/PER
                 (F)     (DEG/KT/KT) (MB)    (MI)  (FT/S)
CALUMET HARBOR    32     230/ 10/ 15 1012.7R
BURNS HARBOR      36     260/ 18/ 21 1013.5R
SAINT JOSEPH      39     260/ 11/ 15 1011.5F

$$
&&




USA.gov is the U.S. government's official web portal to all federal, state and local government web resources and services.